Freeland, MI

3:57 AM EST on December 04, 2016 (GMT -0500)
MBS International

Weather History for KMBS - March, 2014

Change the Weather History Date:

Monday, March 17, 2014

  Actual Average Record
Temperature  
Mean Temperature 20 °F 34 °F  
Max Temperature 29 °F 43 °F 80 °F (2012)
Min Temperature 10 °F 26 °F 10 °F (2014)
Degree Days  
Heating Degree Days 45    
Month to date heating degree days 751  
Since 1 July heating degree days 6343  
Cooling Degree Days 0    
Month to date cooling degree days 0  
Year to date cooling degree days 0  
Moisture  
Dew Point 7 °F    
Average Humidity 58    
Maximum Humidity 73    
Minimum Humidity 42    
Precipitation  
Precipitation 0.00 in 0.06 in 0.41 in (1998)
Month to date precipitation 0.49 1.12  
Year to date precipitation 4.27 4.44  
Snow  
Snow 0.00 in - - ()
Month to date snowfall 5.2  
Since 1 July snowfall 58.3  
Snow Depth 8.00 in    
Sea Level Pressure  
Sea Level Pressure 30.10 in    
Wind  
Wind Speed 8 mph (East)    
Max Wind Speed 14 mph    
Max Gust Speed 17 mph    
Visibility 10 miles    
Events      
T = Trace of Precipitation, MM = Missing Value Source: NWS Daily Summary

Daily Weather History Graph

Daily Weather History Graph

Search for Another Location

Airport or City:

Trip Planner

Search our weather history database for the weather conditions in past years. The results will help you decide how hot, cold, wet, or windy it might be!

Date:

Astronomy

Mar. 17, 2014 Rise Set
Actual Time 7:44 AM EDT 7:45 PM EDT
Civil Twilight 7:16 AM EDT 8:13 PM EDT
Nautical Twilight 6:43 AM EDT 8:47 PM EDT
Astronomical Twilight 6:09 AM EDT 9:21 PM EDT
Moon 9:04 PM EDT (3/17) 7:57 AM EDT (3/17)
Length of Visible Light 12h 57m
Length of Day
12h 00m
Full, 99% of the Moon is Illuminated
Mar 17
Full
Mar 23
Last Quarter
Mar 30
New
Apr 7
First Quarter
Apr 15
Full

Hourly Weather History & Observations

Time (EDT) Temp. Windchill Dew Point Humidity Pressure Visibility Wind Dir Wind Speed Gust Speed Precip Events Conditions
12:53 AM 10.9 °F - 3.9 °F 73% 30.27 in 10.0 mi Calm Calm - N/A   Clear
1:53 AM 12.0 °F - 1.0 °F 61% 30.26 in 10.0 mi Calm Calm - N/A   Clear
2:53 AM 10.9 °F - 3.0 °F 70% 30.24 in 10.0 mi Calm Calm - N/A   Clear
3:53 AM 10.0 °F 0.4 °F 3.0 °F 73% 30.22 in 10.0 mi ENE 5.8 mph - N/A   Clear
4:53 AM 10.0 °F 0.4 °F 3.0 °F 73% 30.19 in 10.0 mi ENE 5.8 mph - N/A   Clear
5:53 AM 10.0 °F -0.9 °F 3.0 °F 73% 30.17 in 10.0 mi ENE 6.9 mph - N/A   Clear
6:53 AM 10.9 °F 0.2 °F 3.9 °F 73% 30.16 in 10.0 mi ENE 6.9 mph - N/A   Clear
7:53 AM 10.9 °F 2.9 °F 3.9 °F 73% 30.16 in 10.0 mi ENE 4.6 mph - N/A   Clear
8:53 AM 12.9 °F 3.8 °F 5.0 °F 71% 30.16 in 10.0 mi East 5.8 mph - N/A   Clear
9:53 AM 16.0 °F 2.9 °F 1.9 °F 54% 30.14 in 10.0 mi East 11.5 mph - N/A   Clear
10:53 AM 17.1 °F 4.3 °F 1.0 °F 50% 30.14 in 10.0 mi East 11.5 mph - N/A   Clear
11:53 AM 19.0 °F 7.5 °F 1.9 °F 47% 30.13 in 10.0 mi East 10.4 mph - N/A   Clear
12:53 PM 21.9 °F 13.4 °F 5.0 °F 48% 30.11 in 10.0 mi Variable 6.9 mph - N/A   Clear
1:53 PM 24.1 °F 14.4 °F 5.0 °F 44% 30.07 in 10.0 mi ENE 9.2 mph - N/A   Clear
2:53 PM 26.1 °F 16.2 °F 6.1 °F 43% 30.03 in 10.0 mi East 10.4 mph - N/A   Clear
3:53 PM 27.0 °F 19.5 °F 8.1 °F 45% 30.01 in 10.0 mi East 6.9 mph - N/A   Clear
4:53 PM 28.0 °F 19.3 °F 9.0 °F 45% 29.98 in 10.0 mi East 9.2 mph - N/A   Clear
5:53 PM 28.9 °F 19.8 °F 10.0 °F 45% 29.98 in 10.0 mi East 10.4 mph - N/A   Clear
6:53 PM 28.0 °F 19.3 °F 10.9 °F 49% 29.98 in 10.0 mi East 9.2 mph - N/A   Overcast
7:53 PM 27.0 °F 17.3 °F 12.0 °F 53% 29.99 in 10.0 mi ENE 10.4 mph - N/A   Overcast
8:53 PM 27.0 °F 18.0 °F 12.9 °F 56% 30.01 in 10.0 mi ENE 9.2 mph - N/A   Overcast
9:53 PM 26.1 °F 15.6 °F 12.9 °F 58% 30.00 in 10.0 mi East 11.5 mph - N/A   Overcast
10:53 PM 25.0 °F 13.6 °F 15.1 °F 66% 30.00 in 10.0 mi ESE 12.7 mph - N/A   Overcast
11:53 PM 26.1 °F 15.6 °F 15.1 °F 63% 29.99 in 10.0 mi ESE 11.5 mph - N/A   Overcast